Hourly Weather Bolshie Saly

Today, 20 June, Sunday

Time Temperature Precipitation Wind Pressure Humidity
00:00 +22°C° 0 mm 7 mps 754 mmHg 48%
01:00 +21°C° 0 mm 7 mps 754 mmHg 47%
02:00 +21°C° 0 mm 7 mps 754 mmHg 47%
03:00 +20°C° 0 mm 7 mps 753 mmHg 46%
04:00 +20°C° 0 mm 7 mps 753 mmHg 51%
05:00 +19°C° 0 mm 6 mps 753 mmHg 56%
06:00 +19°C° 0 mm 6 mps 753 mmHg 60%
07:00 +20°C° 0 mm 6 mps 753 mmHg 60%
08:00 +22°C° 0 mm 7 mps 753 mmHg 60%
09:00 +23°C° 0 mm 7 mps 753 mmHg 58%
10:00 +26°C° 0 mm 7 mps 753 mmHg 56%
11:00 +27°C° 0 mm 7 mps 753 mmHg 53%
12:00 +29°C° 0 mm 8 mps 753 mmHg 50%
13:00 +29°C° 0 mm 7 mps 753 mmHg 50%
14:00 +30°C° 0 mm 7 mps 752 mmHg 50%
15:00 +32°C° 0 mm 7 mps 752 mmHg 50%
16:00 +30°C° 0 mm 6 mps 752 mmHg 52%
17:00 +30°C° 0 mm 6 mps 751 mmHg 54%
18:00 +29°C° 0 mm 5 mps 751 mmHg 57%
19:00 +29°C° 0 mm 5 mps 751 mmHg 57%
20:00 +28°C° 0 mm 5 mps 751 mmHg 57%
21:00 +27°C° 0 mm 5 mps 751 mmHg 57%
22:00 +26°C° 0 mm 5 mps 751 mmHg 55%
23:00 +25°C° 0 mm 5 mps 751 mmHg 53%

Tomorrow, 21 June, Monday

Time Temperature Precipitation Wind Pressure Humidity
00:00 +23°C° 0 mm 5 mps 752 mmHg 51%
01:00 +23°C° 0 mm 5 mps 752 mmHg 47%
02:00 +23°C° 0 mm 5 mps 752 mmHg 44%
03:00 +23°C° 0 mm 6 mps 752 mmHg 41%
04:00 +22°C° 0 mm 5 mps 752 mmHg 46%
05:00 +21°C° 0 mm 5 mps 752 mmHg 52%
06:00 +20°C° 0 mm 5 mps 752 mmHg 57%
07:00 +22°C° 0 mm 5 mps 752 mmHg 56%
08:00 +23°C° 0 mm 6 mps 752 mmHg 54%
09:00 +26°C° 0 mm 6 mps 752 mmHg 52%
10:00 +27°C° 0 mm 6 mps 752 mmHg 50%
11:00 +29°C° 0 mm 7 mps 752 mmHg 48%
12:00 +30°C° 0 mm 7 mps 752 mmHg 45%
13:00 +32°C° 0 mm 7 mps 752 mmHg 45%
14:00 +33°C° 0 mm 7 mps 751 mmHg 44%
15:00 +34°C° 0 mm 7 mps 751 mmHg 43%
16:00 +33°C° 0 mm 7 mps 751 mmHg 45%
17:00 +32°C° 0 mm 6 mps 751 mmHg 47%
18:00 +32°C° 0 mm 6 mps 751 mmHg 49%
19:00 +29°C° 0 mm 6 mps 751 mmHg 48%
20:00 +28°C° 0 mm 6 mps 751 mmHg 47%
21:00 +27°C° 0 mm 6 mps 751 mmHg 47%
22:00 +27°C° 0 mm 6 mps 751 mmHg 45%
23:00 +26°C° 0 mm 5 mps 751 mmHg 43%

Day after tomorrow, 22 June, Tuesday

Time Temperature Precipitation Wind Pressure Humidity
00:00 +25°C° 0 mm 5 mps 751 mmHg 41%
01:00 +23°C° 0 mm 5 mps 751 mmHg 43%
02:00 +22°C° 0 mm 4 mps 752 mmHg 45%
03:00 +21°C° 0 mm 4 mps 752 mmHg 47%
04:00 +20°C° 0 mm 4 mps 752 mmHg 51%
05:00 +20°C° 0 mm 4 mps 752 mmHg 55%
06:00 +19°C° 0 mm 4 mps 752 mmHg 59%
07:00 +22°C° 0 mm 5 mps 752 mmHg 56%
08:00 +25°C° 0 mm 5 mps 752 mmHg 53%
09:00 +27°C° 0 mm 6 mps 752 mmHg 50%
10:00 +28°C° 0 mm 6 mps 752 mmHg 49%
11:00 +30°C° 0 mm 7 mps 752 mmHg 47%
12:00 +32°C° 0 mm 7 mps 752 mmHg 45%
13:00 +33°C° 0 mm 7 mps 751 mmHg 44%
14:00 +34°C° 0 mm 6 mps 751 mmHg 43%
15:00 +35°C° 0 mm 6 mps 751 mmHg 42%
16:00 +34°C° 0 mm 6 mps 751 mmHg 44%
17:00 +34°C° 0 mm 5 mps 750 mmHg 47%
18:00 +33°C° 0 mm 5 mps 750 mmHg 49%
19:00 +32°C° 0 mm 5 mps 750 mmHg 52%
20:00 +29°C° 0 mm 4 mps 750 mmHg 54%
21:00 +27°C° 0 mm 4 mps 751 mmHg 57%
22:00 +26°C° 0.1 mm 4 mps 751 mmHg 58%
23:00 +25°C° 0.1 mm 4 mps 751 mmHg 58%

23 June, Wednesday

Time Temperature Precipitation Wind Pressure Humidity
00:00 +24°C° 0.1 mm 3 mps 752 mmHg 59%
01:00 +23°C° 0.1 mm 4 mps 752 mmHg 55%
02:00 +23°C° 0.1 mm 4 mps 752 mmHg 51%
03:00 +23°C° 0.1 mm 5 mps 751 mmHg 47%
04:00 +22°C° 0 mm 4 mps 752 mmHg 51%
05:00 +22°C° 0 mm 3 mps 752 mmHg 54%
06:00 +22°C° 0 mm 3 mps 752 mmHg 58%
07:00 +24°C° 0 mm 3 mps 753 mmHg 55%
08:00 +26°C° 0 mm 3 mps 753 mmHg 52%
09:00 +28°C° 0 mm 3 mps 753 mmHg 50%
10:00 +29°C° 0 mm 4 mps 753 mmHg 47%
11:00 +32°C° 0 mm 5 mps 753 mmHg 44%
12:00 +33°C° 0 mm 5 mps 753 mmHg 42%
13:00 +34°C° 0 mm 5 mps 753 mmHg 41%
14:00 +35°C° 0 mm 5 mps 752 mmHg 40%
15:00 +35°C° 0 mm 6 mps 752 mmHg 40%
16:00 +35°C° 0 mm 5 mps 752 mmHg 42%
17:00 +34°C° 0 mm 5 mps 752 mmHg 45%
18:00 +33°C° 0 mm 5 mps 752 mmHg 47%
19:00 +32°C° 0 mm 5 mps 752 mmHg 47%
20:00 +30°C° 0 mm 5 mps 752 mmHg 47%
21:00 +28°C° 0 mm 5 mps 752 mmHg 48%
22:00 +28°C° 0 mm 5 mps 752 mmHg 47%
23:00 +27°C° 0 mm 5 mps 752 mmHg 46%

24 June, Thursday

Time Temperature Precipitation Wind Pressure Humidity
00:00 +26°C° 0 mm 5 mps 752 mmHg 45%
01:00 +25°C° 0.1 mm 5 mps 752 mmHg 46%
02:00 +23°C° 0.1 mm 4 mps 752 mmHg 47%
03:00 +23°C° 0.1 mm 4 mps 752 mmHg 48%
04:00 +22°C° 0 mm 4 mps 753 mmHg 51%
05:00 +22°C° 0 mm 4 mps 753 mmHg 53%
06:00 +21°C° 0 mm 3 mps 753 mmHg 56%
07:00 +24°C° 0 mm 3 mps 753 mmHg 53%
08:00 +25°C° 0 mm 4 mps 754 mmHg 51%
09:00 +26°C° 0 mm 4 mps 754 mmHg 49%
10:00 +27°C° 0 mm 3 mps 754 mmHg 47%
11:00 +28°C° 0 mm 3 mps 754 mmHg 44%
12:00 +29°C° 0 mm 3 mps 754 mmHg 42%
13:00 +30°C° 0 mm 3 mps 754 mmHg 42%
14:00 +30°C° 0 mm 3 mps 753 mmHg 43%
15:00 +32°C° 0 mm 4 mps 753 mmHg 43%
16:00 +31°C° 0 mm 3 mps 753 mmHg 46%
17:00 +30°C° 0 mm 2 mps 752 mmHg 48%
18:00 +30°C° 0 mm 2 mps 752 mmHg 51%
19:00 +29°C° 0 mm 2 mps 752 mmHg 52%
20:00 +27°C° 0 mm 2 mps 752 mmHg 54%
21:00 +25°C° 0 mm 2 mps 752 mmHg 55%
22:00 +25°C° 0 mm 2 mps 751 mmHg 54%
23:00 +24°C° 0 mm 3 mps 751 mmHg 53%

25 June, Friday

Time Temperature Precipitation Wind Pressure Humidity
00:00 +24°C° 0 mm 3 mps 750 mmHg 53%
01:00 +23°C° 0 mm 2 mps 750 mmHg 54%
02:00 +23°C° 0 mm 2 mps 750 mmHg 56%
03:00 +22°C° 0 mm 1 mps 750 mmHg 58%
04:00 +22°C° 0 mm 1 mps 750 mmHg 61%
05:00 +22°C° 0 mm 1 mps 750 mmHg 64%
06:00 +23°C° 0 mm 2 mps 751 mmHg 67%
07:00 +24°C° 0 mm 2 mps 751 mmHg 62%
08:00 +26°C° 0 mm 2 mps 751 mmHg 58%
09:00 +28°C° 0 mm 3 mps 751 mmHg 53%
10:00 +29°C° 0 mm 3 mps 751 mmHg 50%
11:00 +31°C° 0 mm 3 mps 751 mmHg 47%
12:00 +33°C° 0 mm 3 mps 751 mmHg 43%
13:00 +32°C° 0 mm 2 mps 751 mmHg 42%
14:00 +34°C° 0 mm 2 mps 751 mmHg 41%
15:00 +34°C° 0 mm 2 mps 750 mmHg 41%
16:00 +32°C° 0 mm 2 mps 750 mmHg 45%
17:00 +31°C° 0 mm 2 mps 750 mmHg 50%
18:00 +31°C° 0 mm 2 mps 750 mmHg 55%
19:00 +29°C° 0 mm 2 mps 750 mmHg 58%
20:00 +27°C° 0 mm 2 mps 750 mmHg 61%
21:00 +26°C° 0 mm 2 mps 750 mmHg 64%
22:00 +25°C° 0 mm 2 mps 750 mmHg 66%
23:00 +24°C° 0 mm 2 mps 750 mmHg 69%
Show more